Alsosag, Hungary

8:09 AM CET on December 09, 2016 (GMT +0100)
Papa

Weather History for LHPA - September, 2013

Change the Weather History Date:

Wednesday, September 25, 2013

  Actual Average Record
Temperature  
Mean Temperature 56 °F -  
Max Temperature 69 °F - - ()
Min Temperature 42 °F - - ()
Degree Days  
Heating Degree Days 10    
Growing Degree Days 6 (Base 50)    
Moisture  
Dew Point 51 °F    
Average Humidity 82    
Maximum Humidity 100    
Minimum Humidity 56    
Precipitation  
Precipitation 0.00 in - - ()
Sea Level Pressure  
Sea Level Pressure 29.94 in    
Wind  
Wind Speed 2 mph ()    
Max Wind Speed 7 mph    
Max Gust Speed -    
Visibility 6.0 miles    
Events      
T = Trace of Precipitation, MM = Missing Value Source: Averaged Metar Reports

Daily Weather History Graph

Daily Weather History Graph

Search for Another Location

Airport or City:

Trip Planner

Search our weather history database for the weather conditions in past years. The results will help you decide how hot, cold, wet, or windy it might be!

Date:

Astronomy

Sep. 25, 2013 Rise Set
Actual Time 6:40 AM CEST 6:41 PM CEST
Civil Twilight 6:10 AM CEST 7:12 PM CEST
Nautical Twilight 5:34 AM CEST 7:47 PM CEST
Astronomical Twilight 4:57 AM CEST 8:24 PM CEST
Moon 10:11 PM CEST (9/25) 12:53 PM CEST (9/25)
Length of Visible Light 13h 01m
Length of Day
12h 00m
Waning Gibbous, 66% of the Moon is Illuminated
Sep 25
Waning Gibbous
Sep 27
Last Quarter
Oct 5
New
Oct 12
First Quarter
Oct 19
Full

Hourly Weather History & Observations

Time (CEST) Temp. Windchill Dew Point Humidity Pressure Visibility Wind Dir Wind Speed Gust Speed Precip Events Conditions
12:15 AM 48.2 °F - 48.2 °F 100% 29.95 in - Calm Calm - N/A   Clear
12:45 AM 48.2 °F - 48.2 °F 100% 29.95 in - Calm Calm - N/A   Clear
1:15 AM 46.4 °F - 46.4 °F 100% 29.95 in - Calm Calm - N/A   Clear
1:45 AM 46.4 °F - 46.4 °F 100% 29.95 in - Calm Calm - N/A   Clear
2:15 AM 46.4 °F - 46.4 °F 100% 29.95 in - Calm Calm - N/A   Clear
2:45 AM 46.4 °F - 46.4 °F 100% 29.95 in - Calm Calm - N/A   Clear
3:15 AM 44.6 °F - 44.6 °F 100% 29.95 in - Calm Calm - N/A   Clear
3:45 AM 44.6 °F - 44.6 °F 100% 29.95 in - SE 2.2 mph - N/A   Clear
4:15 AM 44.6 °F - 44.6 °F 100% 29.95 in - Calm Calm - N/A   Clear
4:45 AM 44.6 °F - 44.6 °F 100% 29.95 in - ESE 2.2 mph - N/A   Clear
5:15 AM 44.6 °F 42.3 °F 44.6 °F 100% 29.95 in - SSE 4.5 mph - N/A   Clear
5:45 AM 44.6 °F - 44.6 °F 100% 29.95 in - SE 2.2 mph - N/A   Clear
6:15 AM 44.6 °F - 44.6 °F 100% 29.95 in - NNE 2.2 mph - N/A   Clear
6:45 AM 42.8 °F - 42.8 °F 100% 29.95 in - Calm Calm - N/A   Clear
7:15 AM 44.6 °F - 44.6 °F 100% 29.98 in - Calm Calm - N/A   Clear
7:45 AM 46.4 °F - 46.4 °F 100% 29.98 in - Calm Calm - N/A   Clear
8:15 AM 50.0 °F - 50.0 °F 100% 29.98 in - Calm Calm - N/A   Clear
8:45 AM 55.4 °F - 51.8 °F 88% 29.98 in - Calm Calm - N/A   Clear
9:15 AM 59.0 °F - 53.6 °F 82% 29.98 in - Calm Calm - N/A   Clear
9:45 AM 62.6 °F - 55.4 °F 77% 30.01 in - Calm Calm - N/A   Clear
10:15 AM 64.4 °F - 53.6 °F 68% 30.01 in - South 2.2 mph - N/A   Clear
10:45 AM 64.4 °F - 51.8 °F 64% 30.01 in - South 2.2 mph - N/A   Clear
11:15 AM 66.2 °F - 53.6 °F 64% 30.01 in 6.2 mi SW 4.5 mph - N/A   Partly Cloudy
11:45 AM 66.2 °F - 53.6 °F 64% 29.98 in 6.2 mi West 4.5 mph - N/A   Partly Cloudy
12:15 PM 68.0 °F - 53.6 °F 60% 29.98 in 6.2 mi South 2.2 mph - N/A   Scattered Clouds
12:45 PM 68.0 °F - 53.6 °F 60% 29.98 in 6.2 mi West 2.2 mph - N/A   Scattered Clouds
1:15 PM 68.0 °F - 53.6 °F 60% 29.98 in 6.2 mi WNW 2.2 mph - N/A   Mostly Cloudy
1:45 PM 68.0 °F - 53.6 °F 60% 29.95 in 6.2 mi WSW 2.2 mph - N/A   Mostly Cloudy
2:15 PM 69.8 °F - 53.6 °F 56% 29.95 in 6.2 mi North 2.2 mph - N/A   Mostly Cloudy
2:45 PM 69.8 °F - 53.6 °F 56% 29.95 in 6.2 mi SSE 2.2 mph - N/A   Scattered Clouds
3:15 PM 69.8 °F - 55.4 °F 60% 29.92 in 6.2 mi SSW 4.5 mph - N/A   Scattered Clouds
3:45 PM 69.8 °F - 53.6 °F 56% 29.92 in 6.2 mi SSE 4.5 mph - N/A   Scattered Clouds
4:15 PM 69.8 °F - 53.6 °F 56% 29.92 in 6.2 mi South 6.7 mph - N/A   Scattered Clouds
4:45 PM 69.8 °F - 55.4 °F 60% 29.89 in 6.2 mi South 6.7 mph - N/A   Scattered Clouds
5:15 PM 68.0 °F - 53.6 °F 60% 29.89 in 6.2 mi South 6.7 mph - N/A   Partly Cloudy
5:45 PM 68.0 °F - 55.4 °F 64% 29.89 in 6.2 mi South 6.7 mph - N/A   Scattered Clouds
6:15 PM 66.2 °F - 55.4 °F 68% 29.89 in 6.2 mi South 6.7 mph - N/A   Scattered Clouds
6:45 PM 64.4 °F - 55.4 °F 73% 29.89 in - South 6.7 mph - N/A   Clear
7:15 PM 60.8 °F - 53.6 °F 77% 29.89 in - SSE 6.7 mph - N/A   Clear
7:45 PM 60.8 °F - 55.4 °F 82% 29.89 in - SSE 6.7 mph - N/A   Clear
8:15 PM 59.0 °F - 53.6 °F 82% 29.92 in - SSE 6.7 mph - N/A   Clear
8:45 PM 57.2 °F - 53.6 °F 88% 29.92 in - SSE 6.7 mph - N/A   Clear
9:15 PM 57.2 °F - 53.6 °F 88% 29.89 in - SSE 6.7 mph - N/A   Clear
9:45 PM 57.2 °F - 55.4 °F 94% 29.89 in - SSE 6.7 mph - N/A   Clear
10:15 PM 57.2 °F - 53.6 °F 88% 29.89 in - SE 4.5 mph - N/A   Clear
10:45 PM 57.2 °F - 53.6 °F 88% 29.89 in 5.0 mi SSE 6.7 mph - N/A   Unknown
11:15 PM 57.2 °F - 53.6 °F 88% 29.89 in 5.0 mi South 6.7 mph - N/A   Unknown
11:45 PM 57.2 °F - 55.4 °F 94% 29.89 in 5.0 mi South 4.5 mph - N/A   Unknown